Terminal Aerodrome Forecast
Issued by NWS

Home | Current Version | Previous Version | Text Only | Print | Product List | Glossary On
Versions: 1 2 3 4 5 6 7 8 9 10 11 12 13
000
FTUS42 TJSJ 210520
TAFISX
TAF
TISX 210520Z 2106/2206 05006KT P6SM FEW030
     FM211300 10015KT P6SM FEW030
     FM212300 07006KT P6SM FEW030=

USA.gov is the U.S. government's official web portal to all federal, state and local government web resources and services.